Cosmos 371 Rocket - Orbit

View from above orbital plane
View from above orbital plane
View from above satellite
View from above satellite

Ground track
Ground track

The orbit data is extracted from the following two-line orbital elements,

1 04579U 70083B   13168.55892137  .00000182  00000-0  44814-4 0  6388
2 04579 074.0042 004.2905 0010755 008.0853 051.7353 14.59259045261621
Epoch (UTC): 17 June 2013 13:24:50
Eccentricity: 0.0010755
inclination: 74.0042°
perigee height: 688 km
apogee height: 703 km
right ascension of ascending node: 4.2905°
argument of perigee: 8.0853°
revolutions per day: 14.59259045
mean anomaly at epoch: 51.7353°
orbit number at epoch: 26162

The dashed part of the orbit path shows where the satellite is in the earth's shadow,  

Developed and maintained by Chris Peat, Heavens-Above GmbH. Please read the updated FAQ before sending e-mail. Imprint. DLR